Regional Weather Roundup
Issued by NWS

Home | Current Version | Previous Version | Text Only | Print | Product List | Glossary On
Versions: 1 2 3 4 5 6 7 8 9 10 11 12 13 14 15 16 17 18 19 20 21 22 23 24 25 26 27 28 29 30 31 32 33 34 35 36 37 38 39 40 41 42 43 44 45 46 47 48 49 50
000
ASUS42 KKEY 280610
RWRKEY

FLORIDA REGIONAL WEATHER ROUNDUP FOR THE FLORIDA KEYS
NATIONAL WEATHER SERVICE KEY WEST FLORIDA
200 AM EDT THU MAY 28 2015

...SOUTH FLORIDA AND THE KEYS...

CITY           SKY/WX    TMP DP  RH WIND       PRES   REMARKS
FORT MYERS     CLEAR     73  69  87 E6        30.08F
SW REGIONAL AP CLEAR     72  67  84 E6        30.09F
NAPLES         CLEAR     74  67  78 E9        30.07F
MIAMI          PTCLDY    78  60  53 E14       30.08F
WEST KENDALL   PTCLDY    78  62  57 E15       30.08F
HOMESTEAD      PTCLDY    78  63  58 NE12      30.07F
MARATHON       MOCLDY    81  69  67 E12       30.05F
BOCA CHICA NAS PTCLDY    79  69  71 E12       30.04F
KEY WEST INTL  PTCLDY    79  69  71 E12       30.04F

...INTERNATIONAL WEATHER...

CITY           SKY/WX    TMP DP  RH WIND       PRES   REMARKS
NASSAU BAHAMAS NOT AVBL
CANCUN MEXICO  MOCLDY    79  73  83 NE6       30.01F
COZUMEL MEXICO PTCLDY    72  72 100 CALM      30.00F

ADJACENT COASTAL WATERS...

STATION/POSITION TIME  SKY/WX   TEMP    WIND        PRES    WAVE
                                AIR SEA DIR/SP/G            HT/PER
                 (UTC)          (F)     (DEG/KT/KT) (MB)    (FT/S)
PULASKI SHOAL LI 0500            82     100/ 17/ 20 1017.3F
SAND KEY         0550            80      90/ 19/ 22 1017.0F
SOMBRERO KEY     0600            80      90/ 22/ 24 1017.4F
LONG KEY         0500            80 82  100/ 18/ 21 1019.0F
MOLASSES REEF    0600            79 81   80/ 16/ 18 1017.6F
FOWEY ROCKS      NOT AVBL

$$


USA.gov is the U.S. government's official web portal to all federal, state and local government web resources and services.